Regional Weather Roundup
Issued by NWS Charleston, WV

Home | Current Version | Previous Version | Text Only | Print | Product List | Glossary Off
Versions: 1 2 3 4 5 6 7 8 9 10 11 12 13 14 15 16 17 18 19 20 21 22 23 24 25 26 27

000
ASUS41 KRLX 290010
RWRRLX
West Virginia Regional Weather Roundup
National Weather Service Charleston WV
800 PM EDT SAT MAY 28 2016

Note: "fair" indicates few or no clouds below 12,000 feet with no
significant weather and/or obstructions to visibility.

WVZ003-290100-
Northern Panhandle of West Virginia

CITY           SKY/WX    TMP DP  RH WIND       PRES   REMARKS
WHEELING         N/A     82  64  54 W6        30.10R
$$

WVZ009-290100-
Northwest West Virginia

CITY           SKY/WX    TMP DP  RH WIND       PRES   REMARKS
PARKERSBURG      N/A     80  68  66 SW3       30.11R
$$

WVZ006-290100-
Western West Virginia

CITY           SKY/WX    TMP DP  RH WIND       PRES   REMARKS
HUNTINGTON       N/A     81  64  56 S3        30.09R
$$

WVZ015-290100-
West Central West Virginia

CITY           SKY/WX    TMP DP  RH WIND       PRES   REMARKS
CHARLESTON       N/A     78  69  73 CALM      30.10R
$$

WVZ022-031-290100-
North Central West Virginia

CITY           SKY/WX    TMP DP  RH WIND       PRES   REMARKS
CLARKSBURG       N/A     83  65  54 CALM      30.10R
MORGANTOWN       N/A     82  63  52 CALM      30.11R
$$

WVZ025-035-042-045-290100-
Southern West Virginia

CITY           SKY/WX    TMP DP  RH WIND       PRES   REMARKS
BECKLEY          N/A     76  52  43 SE5       30.19R
LOGAN            N/A     79  57  47 CALM      30.13R
BLUEFIELD        N/A     73  52  47 VRB7      30.22R
LEWISBURG        N/A     74  57  54 S3        30.20R
$$

WVZ047-290100-
Northern Mountains of West Virginia

CITY           SKY/WX    TMP DP  RH WIND       PRES   REMARKS
ELKINS           N/A     76  64  66 S3        30.16R
$$

WVZ052-290100-
Eastern Panhandle of West Virginia

CITY           SKY/WX    TMP DP  RH WIND       PRES   REMARKS
MARTINSBURG      N/A     81  64  56 S7        30.10R
PETERSBURG       N/A     81  64  57 S3        30.12R
$$




USA.gov is the U.S. government's official web portal to all federal, state and local government web resources and services.